Location: Unspecified
(57.6483°N, 3.3184°W)
Time: 17:32:52
(UTC+01:00)

N. Korean satellite - Pass Details

Date: 01 March 2021
Orbit: 452 x 499 km, 97.2° (Epoch: 20 April)

Event Time Altitude Azimuth Distance (km) Brightness Sun altitude
Rises 04:40:38 0° 26° (NNE) 2,511 10.9 -20.2°
Reaches altitude 10° 04:43:19 10° 49° (NE) 1,639 10.2 -19.8°
Maximum altitude 04:45:34 16° 89° (E) 1,317 9.7 -19.6°
Drops below altitude 10° 04:47:49 10° 129° (SE) 1,647 9.7 -19.3°
Sets 04:50:31 0° 151° (SSE) 2,531 10.4 -18.9°
